Theta_e
349 349 348 348 348 348 348 349 349 349 348 348 348 347 346 346 346 345 344 343 344 349 350 348 346 348 345 347 344 343 344 344 343 342 341 341 342 341 341 341 341 340 340 342 344 344 344 343 343 343 342 342 340 341 341 340 338 338 337 337 337 335
347 348 348 347 347 348 349 349 351 350 349 348 347 346 347 348 346 346 343 346 349 349 349 349 348 345 346 345 344 343 343 342 341 342 342 341 340 340 341 341 340 339 338 339 341 346 345 343 343 342 341 338 340 340 341 340 339 337 337 338 339 338
347 347 347 346 346 347 349 349 349 349 349 346 347 348 348 347 348 347 347 348 349 349 347 345 345 344 344 343 343 343 341 340 340 340 340 340 340 340 340 339 338 339 337 337 344 345 344 344 344 341 339 341 341 341 341 340 339 338 336 338 339 339
346 347 346 345 345 347 350 348 348 349 350 350 349 348 349 348 347 346 346 348 348 346 344 344 344 343 343 343 342 342 342 342 342 341 340 341 340 340 338 337 337 337 340 342 344 343 343 343 342 343 342 341 340 340 339 339 336 337 338 338 338 339
347 346 345 345 345 346 348 348 348 348 347 346 345 345 346 346 346 345 345 346 344 344 344 343 343 343 342 341 340 341 341 341 342 340 338 339 339 337 338 338 339 339 341 341 341 344 344 342 342 341 340 340 340 340 339 339 337 337 339 339 339 342
346 345 345 344 345 345 348 347 347 346 345 344 344 344 344 344 345 344 344 344 344 344 343 341 341 340 339 340 339 340 340 342 341 340 341 339 338 339 338 338 339 339 340 342 343 343 343 342 341 341 339 341 341 341 339 337 338 339 340 339 339 342
344 344 344 344 345 344 346 345 346 344 342 342 343 342 342 342 343 343 344 343 342 342 340 339 338 337 337 337 337 338 339 341 341 341 342 340 339 339 338 339 339 341 341 340 340 341 341 341 340 339 340 340 340 340 340 339 338 339 339 340 340 342
342 342 343 344 343 343 346 345 344 342 342 342 342 341 341 342 343 344 344 344 343 340 338 336 336 336 336 337 336 338 340 340 340 338 341 340 338 337 338 339 341 340 339 339 339 339 339 339 339 340 340 340 339 340 339 338 339 339 339 339 340 342
341 342 342 343 341 342 343 342 342 341 339 341 341 341 340 341 341 342 342 342 341 339 337 337 338 337 337 336 337 339 339 339 341 340 339 338 338 338 338 339 341 341 341 340 339 339 338 338 341 341 339 338 339 338 339 340 339 337 339 340 341 340
342 342 341 341 340 340 341 340 340 339 340 341 340 341 342 340 340 341 341 341 342 340 339 338 337 338 338 337 339 339 339 339 338 338 338 339 336 337 338 339 341 341 337 338 339 339 338 338 340 341 341 338 338 339 340 339 338 337 339 340 340 341
342 341 341 340 339 339 340 340 339 339 340 339 339 340 340 340 341 341 342 343 343 343 341 339 338 337 338 337 338 338 338 339 337 336 338 336 336 335 337 340 342 342 340 339 339 339 338 338 338 338 339 337 336 339 339 339 338 338 338 340 340 340
341 341 340 339 339 338 337 338 339 338 338 339 340 340 339 340 340 340 342 343 344 344 343 342 340 339 339 338 338 338 338 338 337 337 337 336 335 335 336 337 339 340 340 340 339 339 339 337 336 336 336 335 336 338 337 338 338 337 338 340 340 340
340 339 339 339 338 338 338 337 337 338 338 339 340 340 339 340 341 341 342 343 344 344 344 342 343 343 340 339 338 337 337 338 338 337 337 337 336 336 335 335 336 339 338 339 338 337 337 337 335 335 336 337 338 337 337 337 337 337 336 338 338 337
339 339 338 338 339 337 338 338 338 338 338 339 340 339 340 340 341 341 342 342 342 343 343 343 341 342 340 339 338 338 338 338 338 338 337 337 337 338 336 335 336 337 336 337 334 335 335 334 335 335 335 335 336 337 337 337 337 337 338 338 341 340
336 336 336 338 337 338 338 337 337 338 339 340 340 340 340 340 341 342 342 341 342 341 343 342 342 341 340 339 338 338 339 338 338 338 336 336 338 338 338 336 336 335 336 334 334 334 333 332 333 333 334 335 335 334 337 335 336 337 339 339 340 340
335 334 336 338 338 339 338 338 338 338 339 340 340 339 339 340 341 341 341 341 341 341 341 342 342 342 340 339 339 338 338 337 338 337 335 336 338 337 337 335 335 335 331 332 332 331 333 331 332 332 333 335 334 334 334 336 337 336 338 339 338 339
333 334 335 337 337 338 339 338 338 338 338 340 339 338 338 340 339 340 341 340 341 341 340 340 341 341 342 340 339 338 337 338 338 337 335 336 337 337 337 333 334 335 334 331 331 330 331 331 331 331 331 333 333 333 335 336 336 336 337 337 337 338
334 335 337 337 336 337 337 338 338 338 339 337 338 339 339 339 339 339 339 339 340 340 340 340 340 340 341 340 341 339 338 337 337 336 335 337 336 337 338 335 332 333 333 332 330 329 329 331 330 330 330 330 331 333 333 336 335 336 337 335 336 336
332 334 334 336 335 337 337 337 339 337 337 337 338 338 339 339 338 338 338 339 339 340 339 340 340 340 341 340 339 339 337 335 336 335 334 334 335 335 335 335 333 331 333 333 331 331 331 331 330 330 329 330 332 333 333 334 333 335 336 336 336 334
334 334 334 336 337 335 335 333 334 336 335 336 336 336 338 337 338 337 338 339 339 339 339 339 338 339 340 339 338 338 337 335 334 335 333 332 333 335 335 333 333 331 330 330 332 331 331 330 330 329 328 330 331 333 332 333 333 333 333 333 334 334
334 335 334 333 334 334 331 331 333 334 333 335 336 337 337 338 338 337 338 339 339 339 340 339 339 339 338 337 338 338 336 334 333 335 334 332 334 336 336 334 333 333 330 328 329 331 331 332 328 326 328 328 329 332 332 332 332 332 331 332 332 332
334 337 338 334 334 334 334 333 331 334 334 335 336 335 334 335 336 337 338 339 339 338 339 339 339 339 337 338 337 336 337 335 334 335 334 333 333 333 334 333 333 330 331 330 328 332 331 331 326 325 321 322 324 327 330 331 329 330 331 330 330 331
335 335 336 336 335 334 335 335 336 336 336 335 338 339 337 337 337 337 338 338 338 338 338 338 338 337 336 336 336 336 336 337 336 334 332 331 332 332 333 333 333 330 328 331 330 331 331 333 325 327 327 323 320 319 323 326 328 328 328 329 330 330
333 335 337 336 334 335 335 337 338 338 338 337 335 337 338 337 337 336 335 336 337 337 336 336 337 336 336 336 336 335 335 336 334 336 334 332 332 331 332 333 334 333 331 326 327 328 331 333 330 326 319 320 320 320 315 318 322 324 329 328 328 329
331 333 335 335 333 335 335 335 336 337 336 335 336 335 333 332 334 335 334 335 335 336 336 335 336 336 336 336 336 336 335 335 334 334 336 333 332 332 332 333 333 333 333 329 326 329 330 332 334 332 326 320 319 318 318 319 321 321 326 326 327 328
330 331 332 334 334 334 333 332 332 330 329 330 329 330 330 329 330 333 333 335 335 335 335 335 336 336 336 335 335 335 335 334 332 333 334 333 333 332 333 332 334 335 334 335 332 328 328 330 331 331 332 332 332 320 318 320 320 314 324 326 326 326
330 332 334 334 333 333 332 333 333 332 332 332 330 331 334 334 334 334 334 333 333 334 335 335 335 335 335 335 335 335 335 335 334 333 331 333 332 333 333 332 334 335 335 335 335 330 329 327 329 330 330 333 334 332 328 321 318 319 315 320 322 322
331 333 334 332 332 332 331 333 334 334 334 333 333 332 334 333 333 332 332 332 333 334 334 335 335 335 335 335 335 334 335 335 334 334 333 333 333 332 334 334 335 335 335 334 335 332 331 330 328 327 330 333 331 330 329 327 326 322 318 315 315 322
330 332 331 331 332 332 334 335 334 333 332 334 335 334 333 333 332 332 331 331 333 333 333 334 335 334 334 335 334 334 334 334 334 333 333 333 334 333 333 334 333 333 333 333 333 336 334 330 332 330 329 329 328 325 324 327 328 326 320 318 316 317
329 330 330 332 334 334 335 334 333 334 333 333 333 332 333 332 332 332 330 330 332 332 332 331 332 333 333 334 334 334 334 334 334 334 333 334 334 334 334 334 334 334 335 333 334 334 334 335 333 334 331 328 325 323 323 323 325 324 324 324 317 316
330 330 330 331 333 333 333 334 333 334 334 333 333 333 332 331 331 332 330 330 331 331 332 332 332 332 333 333 333 333 333 334 335 334 333 334 335 335 335 335 334 334 334 333 333 334 333 335 334 333 330 328 326 324 323 322 323 323 323 321 319 317
330 330 331 332 333 332 332 332 334 334 334 334 334 334 333 332 333 333 331 331 331 332 332 332 333 332 332 332 332 332 332 332 332 333 333 334 335 335 335 334 334 333 333 334 333 333 332 332 333 332 332 330 328 328 327 325 324 326 324 323 321 318
328 330 331 331 331 330 331 331 332 333 334 335 336 335 335 334 334 333 332 330 329 330 330 331 332 332 333 332 332 332 331 332 333 333 334 334 335 334 334 334 334 333 333 333 333 333 331 332 333 332 332 332 329 327 326 327 327 326 328 327 323 318
328 330 330 330 329 328 329 332 334 333 334 335 336 336 335 334 333 332 332 332 332 332 331 332 332 333 333 333 333 334 333 333 333 333 333 334 334 334 335 333 334 332 332 335 334 334 333 333 334 334 335 331 330 327 326 326 328 328 327 326 322 320
326 329 329 328 327 327 328 329 332 334 334 335 335 335 334 334 333 332 332 332 332 331 331 331 331 332 330 332 332 332 333 333 331 331 332 333 333 334 335 334 335 336 335 334 333 333 332 332 331 331 333 332 331 328 325 325 326 326 327 326 325 322
326 327 328 327 327 328 327 328 330 333 334 334 334 335 333 332 333 333 332 331 330 330 331 330 330 330 329 330 330 330 331 332 332 332 332 333 333 333 334 334 334 335 334 331 333 332 332 332 332 332 333 333 330 327 327 325 326 327 326 328 328 325
327 328 328 328 327 327 328 328 329 332 332 332 332 333 331 331 331 332 332 332 330 329 329 331 331 331 329 329 331 332 332 332 332 333 334 334 334 334 333 333 334 334 334 333 333 331 332 332 333 332 332 332 331 328 326 327 325 327 329 330 328 326
Wind_Speed
12 12 11 11 10 11 11 14 13 14 15 14 14 14 14 14 12 13 12 8 8 8 8 8 9 9 12 10 11 13 13 13 12 11 11 10 10 9 9 8 8 8 8 7 9 10 10 12 12 11 11 11 10 5 5 6 7 7 7 7 8 8
11 12 11 9 8 8 10 10 10 10 10 12 13 14 12 10 9 9 11 9 7 7 7 7 8 10 8 10 11 13 13 12 11 11 11 11 9 8 8 8 7 8 7 6 5 7 9 11 12 10 10 9 5 4 5 6 6 7 7 7 7 9
11 12 13 10 8 9 10 8 10 9 8 11 10 11 10 10 9 10 9 7 6 6 7 8 7 7 8 11 11 12 12 11 11 11 11 10 8 8 8 8 7 7 8 5 4 6 8 8 8 11 9 5 4 4 5 6 6 6 7 7 7 10
12 13 12 9 8 9 8 7 7 7 7 8 9 8 9 9 8 8 7 6 6 7 8 8 11 13 12 9 9 11 11 11 11 9 8 7 8 8 9 8 7 6 5 4 4 6 7 8 7 6 4 4 4 5 5 6 6 6 6 6 7 8
13 12 11 9 9 9 8 7 7 7 7 7 8 9 7 8 8 9 9 7 8 8 8 8 8 7 7 7 7 6 5 4 4 6 5 6 4 5 3 5 5 3 4 4 5 5 6 7 6 6 4 4 5 5 5 5 6 6 6 6 7 5
11 11 10 8 8 9 9 7 7 7 7 7 8 8 8 7 7 8 8 8 9 8 8 8 8 7 7 6 6 5 4 4 5 5 3 5 5 4 4 4 4 4 3 4 4 5 5 6 6 6 5 4 5 5 5 5 6 5 5 6 7 10
10 9 11 10 8 9 7 7 7 7 7 7 7 8 8 8 8 9 9 9 9 8 8 7 7 7 7 6 6 5 5 4 4 4 3 4 4 4 3 3 3 4 3 4 5 5 6 6 5 6 6 5 5 5 5 5 5 5 5 6 8 11
7 10 10 10 9 9 6 7 8 8 7 7 7 7 7 7 8 8 8 8 8 8 7 7 7 7 6 6 6 6 5 4 5 5 3 3 3 3 3 2 3 4 5 5 6 6 6 6 5 6 6 5 6 5 5 5 5 5 4 5 7 10
10 12 10 9 9 8 7 9 8 8 7 8 7 6 7 8 8 7 8 8 8 8 6 5 6 6 6 6 6 6 5 4 3 4 4 4 3 2 2 2 2 3 4 5 5 5 6 6 4 5 5 6 6 6 5 5 5 5 4 5 6 8
13 11 10 11 8 10 8 9 9 8 7 8 6 7 8 7 7 8 7 7 7 6 5 5 5 5 6 6 6 5 5 5 4 3 3 4 3 2 2 2 2 4 5 5 6 5 5 6 5 5 5 6 6 5 5 5 5 5 5 5 6 7
12 12 10 10 10 8 8 8 8 8 8 7 7 7 7 7 7 7 7 7 6 5 5 5 5 6 5 6 5 5 4 4 4 3 3 4 4 3 2 2 2 3 4 4 5 5 5 6 5 5 5 6 6 5 5 5 4 4 4 5 5 6
14 13 11 12 11 8 9 9 9 8 8 8 8 7 7 7 7 6 7 6 6 4 4 4 5 5 6 6 5 5 4 4 4 4 4 4 4 4 4 3 3 3 4 4 5 5 6 6 6 6 6 7 6 5 5 5 4 4 4 5 5 5
16 15 13 12 11 9 9 9 8 8 7 8 8 7 8 7 7 7 7 6 5 5 4 4 3 5 5 5 5 5 4 4 4 4 4 5 5 5 5 5 5 3 4 5 6 6 6 6 6 6 6 7 6 6 5 5 5 4 5 4 5 5
9 11 11 11 9 9 9 8 8 7 7 8 7 8 7 7 7 7 7 7 6 5 4 4 5 4 4 5 4 4 5 5 5 5 4 4 3 3 5 6 5 4 5 5 6 6 6 7 6 7 7 7 6 6 5 5 5 5 4 4 4 4
9 9 8 7 10 9 9 8 8 8 8 8 8 7 7 7 7 6 6 6 6 6 4 5 5 5 4 4 4 5 5 4 5 5 4 3 2 3 5 5 4 4 5 6 6 6 6 7 7 7 7 6 5 5 5 5 4 5 5 4 3 5
9 9 10 9 7 7 9 9 8 8 8 8 7 8 7 7 6 6 6 6 6 6 6 5 4 4 4 4 4 4 4 4 6 5 4 3 2 3 4 6 5 5 7 6 7 7 6 7 7 7 6 6 5 5 5 4 3 4 4 4 3 4
10 12 10 10 8 6 6 8 8 8 9 8 8 7 7 6 6 6 6 6 6 5 5 5 4 3 3 4 3 3 3 5 5 5 4 3 3 3 4 6 5 4 5 6 7 8 7 7 7 7 6 6 5 5 4 4 3 4 4 4 4 4
4 5 7 5 7 7 6 6 7 7 8 9 9 7 6 5 6 6 6 5 6 6 5 6 5 4 3 2 2 4 4 4 5 5 4 3 3 3 3 6 6 4 5 6 6 7 7 7 7 7 7 6 5 4 4 4 4 4 4 4 4 4
8 7 8 7 9 8 8 6 6 8 8 8 6 5 5 5 5 6 5 6 6 5 5 5 5 5 4 3 3 4 5 5 4 5 5 4 4 3 4 5 6 6 5 5 6 7 7 7 7 7 7 7 5 5 4 4 4 3 4 4 4 4
10 10 8 8 6 8 7 7 7 7 8 7 7 7 6 6 6 6 6 7 6 5 5 5 5 5 4 4 4 4 5 5 5 5 6 6 4 4 6 7 6 7 8 7 6 7 8 9 9 9 8 6 6 5 5 4 4 4 3 3 3 3
10 10 8 9 9 8 9 8 7 8 9 8 8 8 7 6 6 5 7 6 6 5 5 5 5 5 5 4 4 4 5 6 5 4 5 6 5 5 5 7 7 6 8 9 8 8 8 9 10 9 8 8 7 6 6 6 6 5 6 4 5 5
13 9 7 9 7 9 7 8 8 8 7 8 8 7 7 6 6 6 6 6 6 5 4 4 4 4 5 5 5 5 5 7 7 5 5 5 6 5 5 7 7 7 6 8 8 8 9 9 8 9 10 8 8 7 7 7 7 7 6 6 5 4
11 10 9 8 8 7 7 8 8 8 9 7 6 6 6 6 6 6 6 6 6 6 5 4 4 4 5 4 5 5 5 5 6 6 6 6 7 7 6 8 9 8 7 6 7 7 6 3 7 8 9 9 8 7 6 7 8 8 7 5 5 6
10 10 8 9 8 7 8 9 8 9 8 7 7 7 6 6 6 6 6 5 5 6 5 4 5 5 4 4 5 5 5 5 6 6 6 7 7 7 7 7 7 8 9 9 8 6 2 2 7 9 8 4 6 6 7 5 7 6 7 7 6 6
10 10 9 11 10 7 7 8 7 8 8 8 8 7 6 5 5 6 5 5 6 6 6 5 5 5 4 4 4 5 5 5 5 5 6 7 7 8 9 8 8 8 9 10 9 7 4 4 2 5 4 6 5 5 4 8 8 6 4 6 6 7
9 9 11 12 11 10 9 9 10 9 9 8 8 7 7 7 6 6 6 5 6 6 6 6 5 5 4 4 5 5 6 6 6 5 5 6 6 7 7 8 8 7 8 7 8 9 7 3 0 2 4 4 2 1 9 10 6 5 4 5 6 6
13 8 9 10 9 7 10 10 11 10 10 9 9 7 7 6 6 5 5 6 6 6 6 6 6 6 5 5 5 6 6 6 6 6 4 5 6 7 6 7 6 6 6 5 6 6 8 8 4 1 1 3 3 2 8 9 6 9 8 4 4 4
10 9 9 7 10 11 9 11 12 11 8 8 8 9 8 7 6 6 6 7 6 6 5 5 6 6 5 5 5 5 6 6 6 6 6 6 6 7 6 4 5 6 6 6 6 5 6 7 7 4 1 1 2 4 6 3 7 6 8 9 5 3
11 10 8 10 9 13 11 11 11 9 9 6 6 8 8 7 7 6 8 6 6 6 5 5 5 6 5 5 5 5 6 6 6 6 5 5 5 7 8 7 6 5 5 6 6 3 5 7 6 4 4 2 3 5 4 3 4 5 7 9 7 7
11 9 9 10 11 11 10 9 8 10 10 7 6 7 8 8 7 7 8 7 7 6 5 4 5 5 5 5 5 5 6 6 6 6 6 5 6 6 7 7 7 6 5 6 5 5 6 5 5 4 4 4 5 6 5 5 5 5 5 4 7 9
12 9 10 11 11 12 9 9 8 8 9 9 9 9 9 9 8 7 8 7 7 6 6 6 5 5 5 6 5 6 5 6 6 6 6 6 6 6 6 6 6 7 6 6 4 5 4 4 3 4 5 5 6 7 7 7 7 7 5 6 8 8
13 12 11 10 11 9 8 7 8 9 9 9 10 8 9 8 8 8 9 8 7 6 6 6 5 5 5 6 5 5 5 6 5 6 6 6 5 5 5 6 6 6 6 6 5 5 6 6 6 5 6 5 5 5 5 5 6 6 6 6 8 9
11 12 11 11 11 9 8 8 8 9 9 8 9 9 8 8 7 7 7 9 9 8 7 6 5 6 6 7 6 6 6 6 5 5 5 5 5 5 5 6 6 7 7 7 6 7 6 7 7 7 6 4 3 4 4 2 4 6 4 6 8 9
10 10 10 10 8 8 8 7 8 8 8 8 8 8 7 8 6 5 6 6 6 6 5 5 4 4 4 6 5 4 5 5 4 4 4 5 5 5 5 5 6 7 7 6 5 7 6 7 6 7 5 5 4 3 2 3 5 5 6 7 8 9
10 10 11 9 8 9 6 7 7 8 8 7 7 7 7 6 6 6 5 6 4 3 4 3 4 3 4 4 4 4 4 4 4 5 5 5 4 5 5 5 5 5 4 4 5 5 5 5 5 6 6 5 4 3 4 4 6 6 7 7 8 9
10 10 10 9 8 10 8 6 8 8 8 7 6 6 6 5 5 6 6 6 5 4 3 4 3 4 4 4 4 4 4 3 4 5 6 6 6 5 6 5 5 4 4 2 4 5 4 4 4 5 6 4 3 3 4 5 6 6 6 7 7 8
12 11 11 12 9 8 7 8 9 9 8 7 8 8 7 8 7 5 6 5 5 4 3 3 4 3 5 4 4 4 5 5 5 5 5 5 5 5 6 6 5 4 4 4 3 4 3 4 3 5 4 5 4 4 4 4 3 5 5 5 7 8
Wind_Direction
154 146 144 145 146 148 148 148 141 141 142 137 136 137 131 128 129 127 122 119 132 128 124 123 124 124 119 114 108 100 94 94 95 96 97 96 93 95 98 93 85 83 84 81 92 108 123 128 120 119 123 121 131 135 109 111 107 99 95 102 100 96
153 148 147 148 150 150 152 149 138 138 139 141 144 137 134 136 135 131 130 137 134 131 129 127 123 124 120 114 103 98 100 101 99 95 91 91 97 100 100 96 91 81 79 83 106 128 130 118 115 115 112 125 143 113 117 112 102 98 98 96 100 107
153 152 152 152 151 155 143 140 141 142 141 137 135 136 142 141 144 140 140 133 128 125 124 121 117 106 105 98 102 103 104 105 102 98 96 98 100 97 93 94 92 87 94 114 122 121 131 136 127 110 126 144 117 113 108 105 99 96 93 94 94 116
157 158 157 151 152 149 133 139 146 145 143 134 138 134 129 136 139 137 132 127 123 121 118 113 112 115 117 116 108 101 100 96 91 82 86 101 98 84 92 90 90 115 133 119 113 128 132 139 142 148 141 134 112 105 107 105 98 92 91 95 94 115
160 160 156 150 153 146 144 143 144 144 142 141 137 137 134 136 135 136 136 129 125 123 119 117 123 123 121 121 123 122 114 101 95 91 75 91 100 101 108 113 123 125 104 110 116 119 132 133 137 138 130 112 106 108 106 101 97 95 91 88 86 62
159 158 151 148 155 151 146 146 146 146 144 142 144 143 139 135 135 134 132 129 128 120 114 120 127 125 124 123 120 111 99 100 100 93 84 93 91 89 104 112 112 112 106 104 108 119 126 131 132 133 129 119 116 113 111 107 101 105 104 100 94 73
159 151 155 149 155 156 146 147 147 145 151 152 149 143 142 141 141 140 137 135 133 129 128 130 130 129 124 125 119 117 112 106 97 95 79 92 84 73 81 105 112 114 114 110 111 115 123 122 129 134 127 122 121 117 113 115 115 114 106 104 100 91
152 160 156 152 155 156 139 146 150 152 157 153 153 148 143 143 141 140 138 137 134 134 135 137 137 134 129 128 123 119 119 113 111 110 91 61 81 82 88 99 124 126 123 112 114 118 119 127 130 130 124 124 122 119 123 121 115 105 106 103 110 100
166 166 156 147 148 146 146 157 159 159 158 153 153 149 146 143 142 142 140 140 140 136 139 138 136 132 130 126 126 124 126 115 106 108 109 89 83 99 104 128 131 128 112 114 117 122 129 129 125 126 125 125 120 122 127 123 119 117 111 109 100 96
173 159 152 149 144 150 155 165 162 162 156 155 154 149 148 145 144 144 144 145 143 140 139 138 131 130 132 130 125 126 126 127 119 110 116 111 109 114 131 147 146 129 123 124 127 125 131 123 118 119 117 116 120 123 125 125 124 117 117 110 105 110
167 154 153 152 146 151 158 164 165 163 157 158 152 149 150 148 147 147 145 145 148 142 137 132 131 134 131 134 131 131 130 129 124 107 98 105 114 127 142 144 128 114 119 123 118 118 121 119 115 112 107 116 126 123 122 117 120 120 117 113 113 114
163 154 152 152 153 159 159 167 168 165 161 158 154 151 150 150 149 145 145 148 155 143 127 122 134 140 141 140 139 138 138 139 122 112 112 119 126 133 134 120 106 104 109 114 108 108 119 127 131 127 129 129 125 120 118 115 111 115 114 113 116 120
160 156 156 153 155 159 159 165 167 167 160 159 158 153 153 155 150 145 147 151 151 142 138 132 136 139 135 143 145 145 147 138 125 120 119 125 127 128 124 124 123 123 125 112 119 119 123 124 125 124 122 113 112 122 128 125 112 109 113 114 111 106
149 141 153 160 154 156 162 164 167 165 162 161 158 156 154 156 153 151 151 150 150 151 145 141 146 141 143 149 152 153 151 139 127 118 119 137 138 136 129 132 136 141 122 125 127 124 123 114 110 117 113 118 122 124 127 125 114 107 92 87 79 91
142 125 140 167 168 160 163 167 166 167 164 162 157 157 157 156 156 154 153 151 153 158 152 154 155 150 157 157 160 157 157 138 127 120 120 127 134 129 126 134 138 128 123 126 125 124 117 115 120 120 120 122 122 128 125 120 118 107 94 93 107 93
121 144 154 167 166 158 165 169 164 163 161 160 157 156 157 161 157 155 155 155 161 158 167 160 154 149 153 172 178 163 147 139 130 119 122 136 158 137 118 135 138 142 138 130 129 121 119 118 120 120 123 120 120 123 122 118 106 106 106 100 100 99
158 164 144 148 155 161 164 168 160 165 162 160 160 158 164 161 162 163 162 164 162 159 160 163 153 157 164 168 182 153 145 144 131 127 132 144 148 128 130 140 137 134 137 134 129 123 118 119 121 121 126 120 123 129 127 117 112 107 104 101 93 92
124 133 131 130 152 146 150 168 158 163 165 166 163 160 156 157 164 169 169 168 167 161 162 161 166 165 167 172 156 156 146 140 128 129 134 143 130 133 126 142 131 130 136 132 129 129 125 123 121 125 124 120 123 110 115 117 116 98 98 104 100 90
136 139 146 162 184 156 152 160 150 162 161 159 154 146 147 150 160 166 171 168 165 162 164 166 165 169 170 170 179 157 147 148 139 135 135 143 147 142 133 135 134 126 121 120 128 129 130 125 121 121 119 115 108 108 107 102 99 94 95 99 96 92
162 165 163 168 174 174 156 161 162 163 162 158 153 148 154 157 160 164 164 162 161 162 167 171 174 174 174 167 174 169 152 147 150 151 147 157 161 159 139 134 129 132 122 117 123 126 127 124 113 107 107 101 101 106 112 109 104 101 103 97 89 102
165 166 168 178 181 176 169 167 175 177 169 163 156 152 153 155 159 160 166 167 159 157 164 170 179 175 182 175 174 165 153 150 154 160 158 161 159 152 143 137 132 132 129 127 129 132 131 130 122 112 111 106 92 88 104 105 98 93 89 85 104 90
167 170 167 178 177 177 181 174 179 179 169 163 154 158 154 154 156 157 163 161 156 157 162 175 173 183 190 182 167 169 165 158 163 160 157 147 154 150 136 148 141 128 136 135 134 144 144 145 134 131 127 113 105 96 87 91 90 82 89 99 89 90
164 169 175 183 184 180 184 186 186 171 164 153 156 156 156 153 153 151 156 157 149 151 157 173 174 175 183 186 177 173 164 162 154 157 149 148 156 163 170 162 157 143 137 135 134 145 153 245 142 143 134 136 134 127 116 97 75 65 86 93 103 100
159 166 178 190 187 182 187 180 188 163 153 147 150 147 142 143 139 138 146 148 141 145 155 164 179 175 176 174 174 171 166 162 161 168 159 162 165 168 173 173 165 155 147 142 154 158 203 246 158 151 156 161 148 148 131 107 94 68 81 84 96 99
162 171 186 190 182 170 160 160 156 141 133 131 135 137 126 128 137 143 142 152 143 144 150 157 175 175 169 163 169 170 171 168 164 164 170 171 174 176 178 180 173 167 165 155 158 160 160 189 169 340 150 138 150 174 131 140 123 79 73 86 93 105
146 176 191 189 176 160 161 164 161 151 150 151 155 156 155 149 150 155 154 141 137 145 149 152 157 162 162 166 176 179 178 169 163 174 177 175 178 179 176 179 176 179 172 173 162 162 155 167 287 332 343 339 5 323 152 155 161 125 89 73 77 81
155 181 188 178 152 169 173 173 167 164 165 166 159 158 157 152 152 145 139 141 136 141 150 149 151 157 160 165 174 179 180 184 167 149 171 178 177 187 183 186 176 183 179 163 171 164 161 168 176 187 314 337 350 319 151 159 153 135 135 103 67 54
156 180 177 155 160 177 179 176 172 172 170 169 163 154 151 143 137 138 137 138 139 140 142 149 153 157 165 170 169 174 181 179 173 168 172 179 178 188 188 175 172 184 183 189 181 178 168 168 188 159 213 284 97 130 134 31 145 161 146 144 128 88
167 172 154 154 185 187 180 172 169 165 163 162 129 132 141 135 133 135 132 136 138 141 144 150 156 159 166 169 171 176 179 180 180 173 181 182 184 185 192 184 171 177 181 192 198 187 177 183 198 168 171 126 126 145 129 115 122 135 149 144 140 144
167 157 155 178 188 175 165 161 158 168 155 140 126 132 139 138 139 140 135 140 143 143 147 146 149 160 160 167 170 171 178 185 188 181 189 190 189 187 186 190 185 180 178 184 196 198 203 197 195 164 185 151 152 148 156 141 162 140 126 144 153 154
166 151 159 180 177 168 163 161 154 152 142 141 140 138 140 148 150 148 146 150 152 151 155 156 157 160 163 162 167 173 177 181 187 187 192 188 189 189 186 189 189 189 182 191 190 200 207 212 190 178 184 184 177 178 182 185 172 172 158 134 133 143
155 145 163 173 172 162 163 152 144 147 147 149 149 148 146 142 149 149 159 156 155 153 157 157 161 157 160 165 164 175 181 182 187 188 190 189 186 188 184 181 182 187 186 191 196 200 213 212 204 198 198 203 205 203 199 205 175 171 168 152 148 148
149 145 163 165 167 156 157 149 145 148 154 156 156 151 149 144 148 152 153 158 158 157 155 159 161 160 161 166 168 170 179 188 189 189 186 186 181 184 179 182 187 192 193 189 189 196 207 212 204 207 202 200 213 203 196 199 169 173 149 140 143 142
146 149 152 160 156 153 153 144 148 155 161 160 154 154 152 147 148 149 155 151 155 149 156 160 155 169 148 163 173 173 179 186 192 188 190 192 185 184 187 187 187 195 196 192 191 197 210 210 210 211 209 196 198 188 170 165 168 164 157 152 150 144
139 151 157 159 159 155 144 148 158 163 162 163 155 155 150 140 146 153 153 146 137 137 154 152 159 145 142 156 149 154 163 173 185 192 189 190 192 193 193 196 190 189 187 181 185 194 204 201 200 195 199 208 169 170 165 167 169 182 174 170 158 153
147 153 161 162 166 165 157 155 159 162 164 160 148 143 130 134 150 152 150 152 149 156 161 144 138 138 140 147 146 144 147 152 167 176 184 188 190 194 196 199 194 185 186 168 188 199 203 197 202 187 190 179 181 168 170 171 184 177 185 174 160 160
159 164 167 171 169 174 155 153 163 162 154 149 150 151 148 157 159 151 146 149 151 151 150 154 136 133 136 132 136 139 139 143 154 162 169 181 187 194 195 200 199 187 185 176 201 201 201 203 184 178 180 178 193 164 177 166 179 173 174 169 168 171